Location: Ch�teau-Arnoux
(44.0814°N, 6.0027°E)
Time: 15:14:11
(UTC+00:00)

deb Kosmos-1763 - Pass Details

Date: 15 November 2019
Orbit: 473 x 485 km, 74.0° (Epoch: 05 December)

Event Time Altitude Azimuth Distance (km) Brightness Sun altitude
Exits shadow 04:44:42 51° 243° (WSW) 615 4.2 -19.0°
Maximum altitude 04:45:20 63° 292° (WNW) 549 4.0 -18.9°
Drops below altitude 10° 04:49:02 10° 14° (NNE) 1,681 6.9 -18.2°
Sets 04:51:11 0° 18° (NNE) 2,566 7.9 -17.9°
